START_TIME,STEP,MOV.,AL01,t_acc.,AL02,t_acc.,E37,t_acc.,H21,t_acc.
1979-07-19 15:00:34.140 ,1,0,0.,24.0,0.,24.0,0.,24.0,0.,24.0
1979-07-19 15:00:58.140 ,2,1,0.,24.0,0.,24.0,0.,24.0,0.,24.0
1979-07-19 15:01:22.140 ,2,0,0.,24.0,0.,24.0,0.,24.0,0.,24.0
1979-07-19 15:01:46.140 ,3,1,0.,24.0,0.,24.0,0.,24.0,0.,24.0
1979-07-19 15:02:10.140 ,3,0,0.,24.0,0.,24.0,0.,24.0,0.,24.0
1979-07-19 15:02:34.140 ,4,1,1.,24.0,0.,24.0,0.,24.0,0.,24.0
1979-07-19 15:02:58.140 ,4,0,0.,24.0,0.,24.0,0.,24.0,0.,24.0
1979-07-19 15:03:22.140 ,5,1,2.,24.0,0.,24.0,0.,24.0,0.,24.0
1979-07-19 15:03:46.140 ,5,0,0.,24.0,0.,24.0,0.,24.0,0.,24.0
1979-07-19 15:04:10.140 ,6,1,0.,24.0,0.,24.0,0.,24.0,0.,24.0
1979-07-19 15:04:34.140 ,6,0,0.,24.0,0.,24.0,0.,24.0,0.,24.0
1979-07-19 15:04:58.140 ,7,1,6.,24.0,0.,24.0,1.,24.0,0.,24.0
1979-07-19 15:05:22.140 ,7,0,34.,24.0,0.,24.0,0.,24.0,0.,24.0
1979-07-19 15:05:46.140 ,7,1,36.,24.0,0.,24.0,0.,24.0,0.,24.0
1979-07-19 15:06:10.140 ,7,0,25.,24.0,0.,24.0,1.,24.0,0.,24.0
1979-07-19 15:06:34.140 ,6,1,22.,24.0,0.,24.0,0.,24.0,0.,24.0
1979-07-19 15:06:58.140 ,6,0,1.,24.0,0.,24.0,0.,24.0,0.,24.0
1979-07-19 15:07:22.140 ,5,1,0.,24.0,0.,24.0,0.,24.0,0.,24.0
1979-07-19 15:07:46.140 ,5,0,0.,24.0,0.,24.0,0.,24.0,0.,24.0
1979-07-19 15:08:10.140 ,4,1,0.,24.0,0.,24.0,1.,24.0,0.,24.0
1979-07-19 15:08:34.140 ,4,0,0.,24.0,0.,24.0,0.,24.0,0.,24.0
1979-07-19 15:08:58.140 ,3,1,0.,24.0,0.,24.0,0.,24.0,0.,24.0
1979-07-19 15:09:22.140 ,3,0,0.,24.0,0.,24.0,0.,24.0,0.,24.0
1979-07-19 15:09:46.140 ,2,1,0.,24.0,1.,24.0,0.,24.0,0.,24.0
1979-07-19 15:10:10.140 ,2,0,0.,24.0,0.,24.0,0.,24.0,0.,24.0
1979-07-19 15:10:34.140 ,1,1,0.,24.0,0.,24.0,0.,24.0,0.,24.0
1979-07-19 15:10:58.140 ,1,0,0.,24.0,1.,24.0,0.,24.0,0.,24.0
1979-07-19 15:11:22.140 ,0,1,0.,24.0,0.,24.0,0.,24.0,0.,24.0
1979-07-19 15:11:46.140 ,0,0,0.,24.0,0.,24.0,0.,24.0,0.,24.0
1979-07-19 15:12:10.140 ,0,1,0.,24.0,0.,24.0,0.,24.0,0.,24.0
1979-07-19 15:12:34.140 ,0,0,0.,24.0,0.,24.0,0.,24.0,0.,24.0
1979-07-19 15:12:58.140 ,1,1,1.,24.0,0.,24.0,0.,24.0,0.,24.0
1979-07-19 15:13:22.140 ,1,0,0.,24.0,0.,24.0,1.,24.0,0.,24.0
1979-07-19 15:13:46.140 ,2,1,0.,24.0,0.,24.0,0.,24.0,0.,24.0
1979-07-19 15:14:10.140 ,2,0,0.,24.0,0.,24.0,0.,24.0,0.,24.0
1979-07-19 15:14:34.140 ,3,1,0.,24.0,0.,24.0,0.,24.0,0.,24.0
1979-07-19 15:14:58.140 ,3,0,0.,24.0,1.,24.0,0.,24.0,0.,24.0
1979-07-19 15:15:22.140 ,4,1,1.,24.0,0.,24.0,0.,24.0,0.,24.0
1979-07-19 15:15:46.140 ,4,0,0.,24.0,0.,24.0,0.,24.0,0.,24.0
1979-07-19 15:16:10.140 ,5,1,0.,24.0,1.,24.0,0.,24.0,0.,24.0
1979-07-19 15:16:34.140 ,5,0,0.,24.0,0.,24.0,2.,24.0,0.,24.0
1979-07-19 15:16:58.140 ,6,1,0.,24.0,0.,24.0,0.,24.0,0.,24.0
1979-07-19 15:17:22.140 ,6,0,0.,24.0,0.,24.0,0.,24.0,0.,24.0
1979-07-19 15:17:46.140 ,7,1,10.,24.0,0.,24.0,0.,24.0,0.,24.0
1979-07-19 15:18:10.140 ,7,0,22.,24.0,0.,24.0,0.,24.0,0.,24.0
1979-07-19 15:18:34.140 ,7,1,39.,24.0,0.,24.0,0.,24.0,0.,24.0
1979-07-19 15:18:58.140 ,7,0,31.,24.0,0.,24.0,0.,24.0,0.,24.0
1979-07-19 15:19:22.140 ,6,1,26.,24.0,0.,24.0,0.,24.0,0.,24.0
1979-07-19 15:19:46.140 ,6,0,0.,24.0,0.,24.0,1.,24.0,0.,24.0
1979-07-19 15:20:10.140 ,5,1,0.,24.0,0.,24.0,0.,24.0,0.,24.0
1979-07-19 15:20:34.140 ,5,0,0.,24.0,0.,24.0,1.,24.0,0.,24.0
1979-07-19 15:20:58.140 ,4,1,0.,24.0,0.,24.0,0.,24.0,0.,24.0
1979-07-19 15:21:22.140 ,4,0,0.,24.0,1.,24.0,1.,24.0,0.,24.0
1979-07-19 15:21:46.140 ,3,1,1.,24.0,0.,24.0,0.,24.0,0.,24.0
1979-07-19 15:22:10.140 ,3,0,0.,24.0,0.,24.0,0.,24.0,0.,24.0
1979-07-19 15:22:34.140 ,2,1,1.,24.0,0.,24.0,1.,24.0,0.,24.0
1979-07-19 15:22:58.140 ,2,0,0.,24.0,0.,24.0,0.,24.0,0.,24.0
1979-07-19 15:23:22.140 ,1,1,0.,24.0,1.,24.0,0.,24.0,0.,24.0
1979-07-19 15:23:46.140 ,1,0,0.,24.0,0.,24.0,1.,24.0,0.,24.0
1979-07-19 15:24:10.140 ,0,1,1.,24.0,0.,24.0,0.,24.0,0.,24.0
1979-07-19 15:24:34.140 ,0,0,0.,24.0,0.,24.0,1.,24.0,0.,24.0
1979-07-19 15:24:58.140 ,0,1,2.,24.0,1.,24.0,0.,24.0,0.,24.0
1979-07-19 15:25:22.140 ,0,0,1.,24.0,1.,24.0,0.,24.0,0.,24.0
1979-07-19 15:25:46.140 ,1,1,0.,24.0,0.,24.0,1.,24.0,0.,24.0
1979-07-19 15:26:10.140 ,1,0,0.,24.0,0.,24.0,0.,24.0,0.,24.0
1979-07-19 15:26:34.140 ,2,1,0.,24.0,0.,24.0,0.,24.0,0.,24.0
1979-07-19 15:26:58.140 ,2,0,0.,24.0,0.,24.0,0.,24.0,0.,24.0
1979-07-19 15:27:22.140 ,3,1,0.,24.0,0.,24.0,0.,24.0,0.,24.0
1979-07-19 15:27:46.140 ,3,0,0.,24.0,0.,24.0,0.,24.0,0.,24.0
1979-07-19 15:28:10.140 ,4,1,0.,24.0,2.,24.0,0.,24.0,0.,24.0
1979-07-19 15:28:34.140 ,4,0,0.,24.0,0.,24.0,0.,24.0,0.,24.0
1979-07-19 15:28:58.140 ,5,1,0.,24.0,0.,24.0,0.,24.0,0.,24.0
1979-07-19 15:29:22.140 ,5,0,0.,24.0,0.,24.0,0.,24.0,0.,24.0
1979-07-19 15:29:46.140 ,6,1,0.,24.0,0.,24.0,0.,24.0,0.,24.0
1979-07-19 15:30:10.140 ,6,0,0.,24.0,0.,24.0,0.,24.0,0.,24.0
1979-07-19 15:30:34.140 ,7,0,11.,24.0,0.,24.0,0.,24.0,0.,24.0
1979-07-19 15:30:58.140 ,7,0,32.,24.0,0.,24.0,0.,24.0,0.,24.0
1979-07-19 15:31:22.140 ,5,1,9.,24.0,0.,24.0,0.,24.0,0.,24.0
1979-07-19 15:31:46.140 ,1,1,0.,24.0,0.,24.0,0.,24.0,0.,24.0
1979-07-19 15:32:10.140 ,2,1,0.,24.0,0.,24.0,0.,24.0,0.,24.0
1979-07-19 15:32:34.140 ,6,1,0.,24.0,0.,24.0,0.,24.0,0.,24.0
1979-07-19 15:32:58.140 ,5,1,9.,24.0,0.,24.0,0.,24.0,0.,24.0
1979-07-19 15:33:22.140 ,1,1,0.,24.0,0.,24.0,0.,24.0,0.,24.0
1979-07-19 15:33:46.140 ,2,1,0.,24.0,0.,24.0,1.,24.0,0.,24.0
1979-07-19 15:34:10.140 ,6,1,0.,24.0,0.,24.0,0.,24.0,0.,24.0
1979-07-19 15:34:34.140 ,5,1,17.,24.0,0.,24.0,0.,24.0,0.,24.0
1979-07-19 15:34:58.140 ,1,1,0.,24.0,0.,24.0,0.,24.0,0.,24.0
1979-07-19 15:35:22.140 ,2,1,0.,24.0,0.,24.0,0.,24.0,0.,24.0
1979-07-19 15:35:46.140 ,6,1,1.,24.0,1.,24.0,0.,24.0,0.,24.0
1979-07-19 15:36:10.140 ,5,1,16.,24.0,0.,24.0,0.,24.0,0.,24.0
1979-07-19 15:36:34.140 ,1,1,0.,24.0,0.,24.0,1.,24.0,0.,24.0
1979-07-19 15:36:58.140 ,2,1,1.,24.0,0.,24.0,0.,24.0,0.,24.0
1979-07-19 15:37:22.140 ,6,1,0.,24.0,0.,24.0,1.,24.0,0.,24.0
1979-07-19 15:37:46.140 ,5,1,15.,24.0,0.,24.0,0.,24.0,0.,24.0
1979-07-19 15:38:10.140 ,1,1,0.,24.0,0.,24.0,1.,24.0,0.,24.0
1979-07-19 15:38:34.140 ,2,1,1.,24.0,0.,24.0,3.,24.0,0.,24.0
1979-07-19 15:38:58.140 ,6,1,0.,24.0,0.,24.0,0.,24.0,0.,24.0
1979-07-19 15:39:22.140 ,5,1,16.,24.0,0.,24.0,1.,24.0,0.,24.0
1979-07-19 15:39:46.140 ,1,1,0.,24.0,1.,24.0,0.,24.0,0.,24.0
1979-07-19 15:40:10.140 ,2,1,0.,24.0,0.,24.0,0.,24.0,0.,24.0
1979-07-19 15:40:34.140 ,6,1,0.,24.0,0.,24.0,0.,24.0,0.,24.0
1979-07-19 15:40:58.140 ,5,1,17.,24.0,0.,24.0,0.,24.0,0.,24.0
1979-07-19 15:41:22.140 ,1,1,1.,24.0,0.,24.0,0.,24.0,0.,24.0
1979-07-19 15:41:46.140 ,0,0,0.,24.0,1.,24.0,0.,24.0,0.,24.0
1979-07-19 15:42:10.140 ,0,0,0.,24.0,0.,24.0,0.,24.0,0.,24.0
1979-07-19 15:42:34.140 ,5,1,17.,24.0,0.,24.0,0.,24.0,0.,24.0
1979-07-19 15:42:58.140 ,5,0,1.,24.0,0.,24.0,2.,24.0,0.,24.0
1979-07-19 15:43:22.140 ,4,1,0.,24.0,0.,24.0,2.,24.0,0.,24.0
1979-07-19 15:43:46.140 ,4,0,0.,24.0,0.,24.0,0.,24.0,0.,24.0
1979-07-19 15:44:10.140 ,3,1,0.,24.0,0.,24.0,0.,24.0,0.,24.0
1979-07-19 15:44:34.140 ,3,0,1.,24.0,0.,24.0,0.,24.0,0.,24.0
1979-07-19 15:44:58.140 ,2,1,2.,24.0,1.,24.0,0.,24.0,0.,24.0
1979-07-19 15:45:22.140 ,2,0,0.,24.0,0.,24.0,0.,24.0,0.,24.0
1979-07-19 15:45:46.140 ,1,1,0.,24.0,0.,24.0,0.,24.0,0.,24.0
1979-07-19 15:46:10.140 ,1,0,0.,24.0,1.,24.0,2.,24.0,0.,24.0
1979-07-19 15:46:34.140 ,0,1,0.,24.0,0.,24.0,0.,24.0,0.,24.0
1979-07-19 15:46:58.140 ,0,0,2.,24.0,0.,24.0,0.,24.0,0.,24.0
1979-07-19 15:47:22.140 ,0,1,0.,24.0,0.,24.0,0.,24.0,0.,24.0
1979-07-19 15:47:46.140 ,0,0,1.,24.0,0.,24.0,0.,24.0,0.,24.0
1979-07-19 15:48:10.140 ,1,1,0.,24.0,0.,24.0,1.,24.0,0.,24.0
1979-07-19 15:48:34.140 ,1,0,0.,24.0,0.,24.0,0.,24.0,0.,24.0
1979-07-19 15:48:58.140 ,2,1,1.,24.0,0.,24.0,0.,24.0,0.,24.0
1979-07-19 15:49:22.140 ,2,0,1.,24.0,0.,24.0,0.,24.0,0.,24.0
1979-07-19 15:49:46.140 ,3,1,0.,24.0,0.,24.0,0.,24.0,0.,24.0
1979-07-19 15:50:10.140 ,3,0,0.,24.0,1.,24.0,0.,24.0,0.,24.0
1979-07-19 15:50:34.140 ,4,1,0.,24.0,0.,24.0,0.,24.0,0.,24.0
1979-07-19 15:50:58.140 ,4,0,0.,24.0,0.,24.0,0.,24.0,0.,24.0
1979-07-19 15:51:22.140 ,5,1,0.,24.0,0.,24.0,0.,24.0,0.,24.0
1979-07-19 15:51:46.140 ,5,0,0.,24.0,0.,24.0,0.,24.0,0.,24.0
1979-07-19 15:52:10.140 ,6,1,0.,24.0,0.,24.0,0.,24.0,0.,24.0
1979-07-19 15:52:34.140 ,6,0,0.,24.0,0.,24.0,0.,24.0,0.,24.0
1979-07-19 15:52:58.140 ,7,1,5.,24.0,0.,24.0,0.,24.0,0.,24.0
1979-07-19 15:53:22.140 ,7,0,35.,24.0,0.,24.0,0.,24.0,0.,24.0
1979-07-19 15:53:46.140 ,7,1,36.,24.0,0.,24.0,0.,24.0,0.,24.0
1979-07-19 15:54:10.140 ,7,0,30.,24.0,0.,24.0,0.,24.0,0.,24.0
1979-07-19 15:54:34.140 ,6,1,19.,24.0,0.,24.0,0.,24.0,0.,24.0
1979-07-19 15:54:58.140 ,6,0,0.,24.0,0.,24.0,1.,24.0,0.,24.0
1979-07-19 15:55:22.140 ,5,1,0.,24.0,2.,24.0,0.,24.0,0.,24.0
1979-07-19 15:55:46.140 ,5,0,0.,24.0,2176.,24.0,0.,24.0,0.,24.0
1979-07-19 15:56:58.140 ,0,0,0.,24.0,9984.,24.0,0.,24.0,0.,24.0
1979-07-19 15:57:22.140 ,0,0,1.,24.0,9472.,24.0,0.,24.0,0.,24.0
1979-07-19 15:57:46.140 ,2,1,0.,24.0,2176.,24.0,0.,24.0,0.,24.0
1979-07-19 15:58:10.140 ,2,0,0.,24.0,2176.,24.0,0.,24.0,0.,24.0
1979-07-19 15:58:34.140 ,1,1,0.,24.0,9984.,24.0,0.,24.0,0.,24.0
1979-07-19 15:58:58.140 ,1,0,0.,24.0,17408.,24.0,0.,24.0,0.,24.0
1979-07-19 15:59:22.140 ,0,1,0.,24.0,9472.,24.0,1.,24.0,0.,24.0
1979-07-19 15:59:46.140 ,0,0,0.,24.0,9984.,24.0,0.,24.0,0.,24.0
1979-07-19 16:00:10.140 ,0,1,0.,24.0,17408.,24.0,0.,24.0,0.,24.0
1979-07-19 16:00:34.140 ,0,0,0.,24.0,17408.,24.0,0.,24.0,0.,24.0
1979-07-19 16:00:58.140 ,1,1,1.,24.0,17408.,24.0,0.,24.0,0.,24.0
1979-07-19 16:01:22.140 ,1,0,0.,24.0,17408.,24.0,0.,24.0,0.,24.0
1979-07-19 16:01:46.140 ,2,1,0.,24.0,9472.,24.0,0.,24.0,0.,24.0
1979-07-19 16:02:10.140 ,2,0,0.,24.0,0.,24.0,0.,24.0,0.,24.0
1979-07-19 16:02:34.140 ,3,1,0.,24.0,0.,24.0,0.,24.0,0.,24.0
1979-07-19 16:02:58.140 ,3,0,0.,24.0,0.,24.0,0.,24.0,0.,24.0
1979-07-19 16:03:22.140 ,4,1,0.,24.0,0.,24.0,0.,24.0,0.,24.0
1979-07-19 16:03:46.140 ,4,0,0.,24.0,0.,24.0,0.,24.0,0.,24.0
1979-07-19 16:04:10.140 ,5,1,0.,24.0,0.,24.0,0.,24.0,0.,24.0
1979-07-19 16:04:34.140 ,5,0,0.,24.0,0.,24.0,0.,24.0,0.,24.0
1979-07-19 16:04:58.140 ,6,1,0.,24.0,0.,24.0,0.,24.0,0.,24.0
1979-07-19 16:05:22.140 ,6,0,0.,24.0,0.,24.0,2.,24.0,0.,24.0
1979-07-19 16:05:46.140 ,7,1,4.,24.0,0.,24.0,0.,24.0,0.,24.0
1979-07-19 16:06:10.140 ,7,0,30.,24.0,0.,24.0,0.,24.0,0.,24.0
1979-07-19 16:06:34.140 ,7,1,25.,24.0,0.,24.0,2.,24.0,0.,24.0
1979-07-19 16:06:58.140 ,7,0,33.,24.0,0.,24.0,0.,24.0,0.,24.0
1979-07-19 16:07:22.140 ,6,1,21.,24.0,0.,24.0,0.,24.0,0.,24.0
1979-07-19 16:07:46.140 ,6,0,1.,24.0,0.,24.0,0.,24.0,0.,24.0
1979-07-19 16:08:10.140 ,5,1,1.,24.0,0.,24.0,0.,24.0,0.,24.0
1979-07-19 16:08:34.140 ,5,0,0.,24.0,0.,24.0,0.,24.0,0.,24.0
1979-07-19 16:08:58.140 ,4,1,0.,24.0,0.,24.0,0.,24.0,0.,24.0
1979-07-19 16:09:22.140 ,4,0,0.,24.0,0.,24.0,0.,24.0,0.,24.0
1979-07-19 16:09:46.140 ,3,1,0.,24.0,0.,24.0,0.,24.0,0.,24.0
1979-07-19 16:10:10.140 ,3,0,0.,24.0,0.,24.0,0.,24.0,0.,24.0
1979-07-19 16:10:34.140 ,2,1,0.,24.0,0.,24.0,1.,24.0,0.,24.0
1979-07-19 16:10:58.140 ,2,0,0.,24.0,0.,24.0,0.,24.0,0.,24.0
1979-07-19 16:11:22.140 ,1,1,0.,24.0,0.,24.0,1.,24.0,0.,24.0
1979-07-19 16:11:46.140 ,1,0,0.,24.0,0.,24.0,2.,24.0,0.,24.0
1979-07-19 16:12:10.140 ,0,1,0.,24.0,0.,24.0,0.,24.0,0.,24.0
1979-07-19 16:12:34.140 ,0,0,1.,24.0,0.,24.0,0.,24.0,0.,24.0
1979-07-19 16:12:58.140 ,0,1,0.,24.0,0.,24.0,1.,24.0,0.,24.0
1979-07-19 16:13:22.140 ,0,0,0.,24.0,0.,24.0,0.,24.0,0.,24.0
1979-07-19 16:13:46.140 ,1,1,0.,24.0,0.,24.0,0.,24.0,0.,24.0
1979-07-19 16:14:10.140 ,1,0,0.,24.0,1.,24.0,0.,24.0,0.,24.0
1979-07-19 16:14:34.140 ,2,1,0.,24.0,0.,24.0,0.,24.0,0.,24.0
1979-07-19 16:14:58.140 ,2,0,1.,24.0,0.,24.0,0.,24.0,0.,24.0
1979-07-19 16:15:22.140 ,3,1,0.,24.0,0.,24.0,0.,24.0,0.,24.0
1979-07-19 16:15:46.140 ,3,0,0.,24.0,0.,24.0,0.,24.0,0.,24.0
1979-07-19 16:16:10.140 ,4,1,0.,24.0,0.,24.0,1.,24.0,0.,24.0
1979-07-19 16:16:34.140 ,4,0,0.,24.0,0.,24.0,0.,24.0,0.,24.0
1979-07-19 16:16:58.140 ,5,1,1.,24.0,0.,24.0,0.,24.0,0.,24.0
1979-07-19 16:17:22.140 ,5,0,0.,24.0,0.,24.0,0.,24.0,0.,24.0
1979-07-19 16:17:46.140 ,6,1,0.,24.0,1.,24.0,2.,24.0,0.,24.0
1979-07-19 16:18:10.140 ,6,0,0.,24.0,1.,24.0,0.,24.0,0.,24.0
1979-07-19 16:18:34.140 ,7,0,8.,24.0,1.,24.0,0.,24.0,0.,24.0
1979-07-19 16:18:58.140 ,7,0,25.,24.0,0.,24.0,2.,24.0,0.,24.0
1979-07-19 16:19:22.140 ,5,1,17.,24.0,280.,24.0,1.,24.0,0.,24.0
1979-07-19 16:19:46.140 ,1,1,0.,24.0,2368.,24.0,0.,24.0,0.,24.0
1979-07-19 16:20:10.140 ,2,1,0.,24.0,2048.,24.0,0.,24.0,0.,24.0
1979-07-19 16:20:34.140 ,6,1,2.,24.0,2240.,24.0,0.,24.0,0.,24.0
1979-07-19 16:20:58.140 ,5,1,13.,24.0,9984.,24.0,0.,24.0,0.,24.0
1979-07-19 16:21:22.140 ,1,1,0.,24.0,9472.,24.0,0.,24.0,0.,24.0
1979-07-19 16:21:46.140 ,2,1,0.,24.0,1984.,24.0,0.,24.0,0.,24.0
1979-07-19 16:22:10.140 ,6,1,1.,24.0,2176.,24.0,2.,24.0,0.,24.0
1979-07-19 16:22:34.140 ,5,1,14.,24.0,9984.,24.0,0.,24.0,0.,24.0
1979-07-19 16:22:58.140 ,1,1,0.,24.0,17408.,24.0,0.,24.0,0.,24.0
1979-07-19 16:23:22.140 ,2,1,0.,24.0,9216.,24.0,0.,24.0,0.,24.0
1979-07-19 16:23:46.140 ,6,1,0.,24.0,9984.,24.0,0.,24.0,0.,24.0
1979-07-19 16:24:10.140 ,5,1,12.,24.0,17408.,24.0,0.,24.0,0.,24.0
1979-07-19 16:24:34.140 ,1,1,0.,24.0,17408.,24.0,0.,24.0,0.,24.0
1979-07-19 16:24:58.140 ,2,1,0.,24.0,17408.,24.0,0.,24.0,0.,24.0
1979-07-19 16:25:22.140 ,6,1,0.,24.0,17408.,24.0,0.,24.0,0.,24.0
1979-07-19 16:25:46.140 ,5,1,10.,24.0,9472.,24.0,0.,24.0,0.,24.0
1979-07-19 16:26:10.140 ,1,1,0.,24.0,0.,24.0,0.,24.0,0.,24.0
1979-07-19 16:26:34.140 ,2,1,0.,24.0,0.,24.0,0.,24.0,0.,24.0
1979-07-19 16:26:58.140 ,6,1,0.,24.0,0.,24.0,0.,24.0,0.,24.0
1979-07-19 16:27:22.140 ,5,1,6.,24.0,0.,24.0,0.,24.0,0.,24.0
1979-07-19 16:27:46.140 ,1,1,0.,24.0,0.,24.0,0.,24.0,0.,24.0
1979-07-19 16:28:10.140 ,2,1,0.,24.0,0.,24.0,0.,24.0,0.,24.0
1979-07-19 16:28:34.140 ,6,1,2.,24.0,1.,24.0,0.,24.0,0.,24.0
1979-07-19 16:28:58.140 ,5,1,14.,24.0,1.,24.0,0.,24.0,0.,24.0
1979-07-19 16:29:22.140 ,1,1,0.,24.0,1.,24.0,0.,24.0,0.,24.0
1979-07-19 16:29:46.140 ,0,0,0.,24.0,0.,24.0,0.,24.0,0.,24.0
1979-07-19 16:30:10.140 ,0,0,0.,24.0,1.,24.0,0.,24.0,0.,24.0
1979-07-19 16:30:34.140 ,5,1,11.,24.0,0.,24.0,0.,24.0,0.,24.0
1979-07-19 16:30:58.140 ,5,0,0.,24.0,0.,24.0,0.,24.0,0.,24.0
1979-07-19 16:31:22.140 ,4,1,0.,24.0,0.,24.0,0.,24.0,0.,24.0
1979-07-19 16:31:46.140 ,4,0,0.,24.0,0.,24.0,0.,24.0,0.,24.0
1979-07-19 16:32:10.140 ,3,1,0.,24.0,1.,24.0,0.,24.0,0.,24.0
1979-07-19 16:32:34.140 ,3,0,0.,24.0,1.,24.0,0.,24.0,0.,24.0
1979-07-19 16:32:58.140 ,2,1,0.,24.0,0.,24.0,0.,24.0,0.,24.0
1979-07-19 16:33:22.140 ,2,0,0.,24.0,0.,24.0,0.,24.0,0.,24.0
1979-07-19 16:33:46.140 ,1,1,1.,24.0,1.,24.0,2.,24.0,0.,24.0
1979-07-19 16:34:10.140 ,1,0,0.,24.0,0.,24.0,0.,24.0,0.,24.0
1979-07-19 16:34:34.140 ,0,1,2.,24.0,0.,24.0,0.,24.0,0.,24.0
1979-07-19 16:34:58.140 ,0,0,0.,24.0,0.,24.0,0.,24.0,0.,24.0
1979-07-19 16:35:22.140 ,0,1,1.,24.0,0.,24.0,1.,24.0,0.,24.0
1979-07-19 16:35:46.140 ,0,0,0.,24.0,0.,24.0,1.,24.0,0.,24.0
1979-07-19 16:36:10.140 ,1,1,0.,24.0,0.,24.0,0.,24.0,0.,24.0
1979-07-19 16:36:34.140 ,1,0,0.,24.0,1.,24.0,0.,24.0,0.,24.0
1979-07-19 16:36:58.140 ,2,1,1.,24.0,0.,24.0,1.,24.0,0.,24.0
1979-07-19 16:37:22.140 ,2,0,0.,24.0,0.,24.0,1.,24.0,0.,24.0
1979-07-19 16:37:46.140 ,3,1,0.,24.0,0.,24.0,0.,24.0,0.,24.0
1979-07-19 16:38:10.140 ,3,0,1.,24.0,1.,24.0,1.,24.0,0.,24.0
1979-07-19 16:38:34.140 ,4,1,0.,24.0,0.,24.0,0.,24.0,0.,24.0
1979-07-19 16:38:58.140 ,4,0,0.,24.0,0.,24.0,1.,24.0,0.,24.0
1979-07-19 16:39:22.140 ,5,1,0.,24.0,0.,24.0,0.,24.0,0.,24.0
1979-07-19 16:39:46.140 ,5,0,0.,24.0,0.,24.0,0.,24.0,0.,24.0
1979-07-19 16:40:10.140 ,6,1,1.,24.0,0.,24.0,0.,24.0,0.,24.0
1979-07-19 16:40:34.140 ,6,0,0.,24.0,1.,24.0,0.,24.0,0.,24.0
1979-07-19 16:40:58.140 ,7,1,5.,24.0,0.,24.0,1.,24.0,0.,24.0
1979-07-19 16:41:22.140 ,7,0,39.,24.0,0.,24.0,0.,24.0,0.,24.0
1979-07-19 16:41:46.140 ,7,1,25.,24.0,0.,24.0,0.,24.0,0.,24.0
1979-07-19 16:42:10.140 ,7,0,29.,24.0,0.,24.0,0.,24.0,0.,24.0
1979-07-19 16:42:34.140 ,6,1,24.,24.0,0.,24.0,0.,24.0,0.,24.0
1979-07-19 16:42:58.140 ,6,0,1.,24.0,0.,24.0,0.,24.0,0.,24.0
1979-07-19 16:43:22.140 ,5,1,0.,24.0,33.,24.0,0.,24.0,0.,24.0
1979-07-19 16:43:46.140 ,5,0,0.,24.0,0.,24.0,0.,24.0,0.,24.0
1979-07-19 16:44:10.140 ,4,1,0.,24.0,0.,24.0,0.,24.0,0.,24.0
1979-07-19 16:44:34.140 ,4,0,1.,24.0,0.,24.0,0.,24.0,0.,24.0
1979-07-19 16:44:58.140 ,3,1,0.,24.0,0.,24.0,0.,24.0,0.,24.0
1979-07-19 16:45:22.140 ,3,0,1.,24.0,0.,24.0,0.,24.0,0.,24.0
1979-07-19 16:45:46.140 ,2,1,0.,24.0,0.,24.0,0.,24.0,0.,24.0
1979-07-19 16:46:10.140 ,2,0,0.,24.0,0.,24.0,0.,24.0,0.,24.0
1979-07-19 16:46:34.140 ,1,1,0.,24.0,1.,24.0,0.,24.0,0.,24.0
1979-07-19 16:46:58.140 ,1,0,0.,24.0,1.,24.0,0.,24.0,0.,24.0
1979-07-19 16:47:22.140 ,0,1,0.,24.0,0.,24.0,0.,24.0,0.,24.0
1979-07-19 16:47:46.140 ,0,0,0.,24.0,0.,24.0,0.,24.0,0.,24.0
1979-07-19 16:48:10.140 ,0,1,0.,24.0,0.,24.0,0.,24.0,0.,24.0
1979-07-19 16:48:34.140 ,0,0,0.,24.0,0.,24.0,0.,24.0,0.,24.0
1979-07-19 16:48:58.140 ,1,1,0.,24.0,0.,24.0,0.,24.0,0.,24.0
1979-07-19 16:49:22.140 ,1,0,0.,24.0,0.,24.0,0.,24.0,0.,24.0
1979-07-19 16:49:46.140 ,2,1,0.,24.0,0.,24.0,0.,24.0,0.,24.0
1979-07-19 16:50:10.140 ,2,0,1.,24.0,0.,24.0,0.,24.0,0.,24.0
1979-07-19 16:50:34.130 ,3,1,1.,24.0,0.,24.0,0.,24.0,0.,24.0
1979-07-19 16:50:58.130 ,3,0,0.,24.0,0.,24.0,0.,24.0,0.,24.0
1979-07-19 16:51:22.130 ,4,1,0.,24.0,0.,24.0,0.,24.0,0.,24.0
1979-07-19 16:51:46.130 ,4,0,0.,24.0,0.,24.0,0.,24.0,0.,24.0
1979-07-19 16:52:10.130 ,5,1,0.,24.0,0.,24.0,0.,24.0,0.,24.0
1979-07-19 16:52:34.130 ,5,0,0.,24.0,0.,24.0,0.,24.0,0.,24.0
1979-07-19 16:52:58.130 ,6,1,0.,24.0,0.,24.0,0.,24.0,0.,24.0
1979-07-19 16:53:22.130 ,6,0,0.,24.0,0.,24.0,0.,24.0,0.,24.0
1979-07-19 16:53:46.130 ,7,1,9.,24.0,0.,24.0,0.,24.0,0.,24.0
1979-07-19 16:54:10.130 ,7,0,29.,24.0,0.,24.0,0.,24.0,0.,24.0
1979-07-19 16:54:34.130 ,7,1,28.,24.0,0.,24.0,0.,24.0,0.,24.0
1979-07-19 16:54:58.130 ,7,0,28.,24.0,0.,24.0,0.,24.0,0.,24.0
1979-07-19 16:55:22.130 ,6,1,30.,24.0,0.,24.0,0.,24.0,0.,24.0
1979-07-19 16:55:46.130 ,6,0,1.,24.0,0.,24.0,0.,24.0,0.,24.0
1979-07-19 16:56:10.130 ,5,1,0.,24.0,0.,24.0,0.,24.0,0.,24.0
1979-07-19 16:56:34.130 ,5,0,0.,24.0,0.,24.0,0.,24.0,0.,24.0
1979-07-19 16:56:58.130 ,4,1,0.,24.0,0.,24.0,0.,24.0,0.,24.0
1979-07-19 16:57:22.130 ,4,0,1.,24.0,1.,24.0,0.,24.0,0.,24.0
1979-07-19 16:57:46.130 ,3,1,0.,24.0,0.,24.0,0.,24.0,0.,24.0
1979-07-19 16:58:10.130 ,3,0,0.,24.0,0.,24.0,0.,24.0,0.,24.0
1979-07-19 16:58:34.130 ,2,1,0.,24.0,0.,24.0,0.,24.0,0.,24.0
1979-07-19 16:58:58.130 ,2,0,1.,24.0,0.,24.0,0.,24.0,0.,24.0
1979-07-19 16:59:22.130 ,1,1,0.,24.0,0.,24.0,0.,24.0,0.,24.0
1979-07-19 16:59:46.130 ,1,0,0.,24.0,0.,24.0,0.,24.0,0.,24.0
1979-07-19 17:03:04.730 ,0,0,0.,24.0,0.,24.0,0.,24.0,0.,24.0
1979-07-19 17:03:22.130 ,3,1,0.,24.0,0.,24.0,0.,24.0,0.,24.0
1979-07-19 17:03:46.130 ,3,0,0.,24.0,0.,24.0,0.,24.0,0.,24.0
1979-07-19 17:04:10.130 ,4,1,0.,24.0,0.,24.0,0.,24.0,0.,24.0
1979-07-19 17:04:34.130 ,4,0,0.,24.0,0.,24.0,0.,24.0,0.,24.0
1979-07-19 17:04:58.130 ,5,1,0.,24.0,0.,24.0,0.,24.0,0.,24.0
1979-07-19 17:05:22.130 ,5,0,0.,24.0,0.,24.0,0.,24.0,0.,24.0
1979-07-19 17:05:46.130 ,6,1,0.,24.0,0.,24.0,0.,24.0,0.,24.0
1979-07-19 17:06:10.130 ,6,0,2.,24.0,1.,24.0,0.,24.0,0.,24.0
1979-07-19 17:06:34.130 ,7,0,4.,24.0,0.,24.0,0.,24.0,0.,24.0
1979-07-19 17:06:58.130 ,7,0,44.,24.0,0.,24.0,0.,24.0,0.,24.0
1979-07-19 17:07:22.130 ,5,1,15.,24.0,0.,24.0,0.,24.0,0.,24.0
1979-07-19 17:07:46.130 ,1,1,1.,24.0,1.,24.0,0.,24.0,0.,24.0
1979-07-19 17:08:10.130 ,2,1,0.,24.0,0.,24.0,0.,24.0,0.,24.0
1979-07-19 17:08:34.130 ,6,1,0.,24.0,0.,24.0,0.,24.0,0.,24.0
1979-07-19 17:08:58.130 ,5,1,14.,24.0,0.,24.0,0.,24.0,0.,24.0
1979-07-19 17:09:22.130 ,1,1,0.,24.0,0.,24.0,0.,24.0,0.,24.0
1979-07-19 17:09:46.130 ,2,1,0.,24.0,0.,24.0,0.,24.0,0.,24.0
1979-07-19 17:10:10.130 ,6,1,0.,24.0,1.,24.0,0.,24.0,0.,24.0
1979-07-19 17:10:34.130 ,5,1,17.,24.0,0.,24.0,0.,24.0,0.,24.0
1979-07-19 17:10:58.130 ,1,1,0.,24.0,0.,24.0,0.,24.0,0.,24.0
1979-07-19 17:11:22.130 ,2,1,0.,24.0,0.,24.0,0.,24.0,0.,24.0
1979-07-19 17:11:46.130 ,6,1,0.,24.0,0.,24.0,0.,24.0,0.,24.0
1979-07-19 17:12:10.130 ,5,1,17.,24.0,0.,24.0,0.,24.0,0.,24.0
1979-07-19 17:12:34.130 ,1,1,0.,24.0,0.,24.0,0.,24.0,0.,24.0
1979-07-19 17:12:58.130 ,2,1,1.,24.0,0.,24.0,0.,24.0,0.,24.0
1979-07-19 17:13:22.130 ,6,1,0.,24.0,0.,24.0,0.,24.0,0.,24.0
1979-07-19 17:13:46.130 ,5,1,14.,24.0,0.,24.0,0.,24.0,0.,24.0
1979-07-19 17:14:10.130 ,1,1,1.,24.0,0.,24.0,0.,24.0,0.,24.0
1979-07-19 17:14:34.130 ,2,1,1.,24.0,0.,24.0,0.,24.0,0.,24.0
1979-07-19 17:14:58.130 ,6,1,1.,24.0,0.,24.0,0.,24.0,0.,24.0
1979-07-19 17:15:22.130 ,5,1,17.,24.0,0.,24.0,0.,24.0,0.,24.0
1979-07-19 17:15:46.130 ,1,1,1.,24.0,0.,24.0,0.,24.0,0.,24.0
1979-07-19 17:16:10.130 ,2,1,0.,24.0,0.,24.0,0.,24.0,0.,24.0
1979-07-19 17:16:34.130 ,6,1,1.,24.0,0.,24.0,0.,24.0,0.,24.0
1979-07-19 17:16:58.130 ,5,1,16.,24.0,0.,24.0,0.,24.0,0.,24.0
1979-07-19 17:17:22.130 ,1,1,0.,24.0,0.,24.0,0.,24.0,0.,24.0
1979-07-19 17:17:46.130 ,0,0,1.,24.0,1.,24.0,0.,24.0,0.,24.0
1979-07-19 17:18:10.130 ,0,0,1.,24.0,0.,24.0,0.,24.0,0.,24.0
1979-07-19 17:18:34.130 ,5,1,20.,24.0,0.,24.0,0.,24.0,0.,24.0
1979-07-19 17:18:58.130 ,5,0,0.,24.0,0.,24.0,0.,24.0,0.,24.0
1979-07-19 17:19:22.130 ,4,1,0.,24.0,0.,24.0,0.,24.0,0.,24.0
1979-07-19 17:19:46.130 ,4,0,1.,24.0,0.,24.0,0.,24.0,0.,24.0
1979-07-19 17:20:10.130 ,3,1,0.,24.0,1.,24.0,0.,24.0,0.,24.0
1979-07-19 17:20:34.130 ,3,0,0.,24.0,0.,24.0,0.,24.0,0.,24.0
1979-07-19 17:20:58.130 ,2,1,0.,24.0,0.,24.0,0.,24.0,0.,24.0
1979-07-19 17:21:22.130 ,2,0,0.,24.0,0.,24.0,0.,24.0,0.,24.0
1979-07-19 17:21:46.130 ,1,1,0.,24.0,0.,24.0,0.,24.0,0.,24.0
1979-07-19 17:22:10.130 ,1,0,0.,24.0,0.,24.0,0.,24.0,0.,24.0
1979-07-19 17:22:34.130 ,0,1,0.,24.0,0.,24.0,0.,24.0,0.,24.0
1979-07-19 17:22:58.130 ,0,0,0.,24.0,0.,24.0,0.,24.0,0.,24.0
1979-07-19 17:23:22.130 ,0,1,0.,24.0,0.,24.0,0.,24.0,0.,24.0
1979-07-19 17:23:46.130 ,0,0,0.,24.0,0.,24.0,0.,24.0,0.,24.0
1979-07-19 17:24:10.130 ,1,1,0.,24.0,0.,24.0,0.,24.0,0.,24.0
1979-07-19 17:24:34.130 ,1,0,0.,24.0,0.,24.0,0.,24.0,0.,24.0
1979-07-19 17:24:58.130 ,2,1,0.,24.0,0.,24.0,0.,24.0,0.,24.0
1979-07-19 17:25:22.130 ,2,0,0.,24.0,0.,24.0,0.,24.0,0.,24.0
1979-07-19 17:25:46.130 ,3,1,0.,24.0,0.,24.0,0.,24.0,0.,24.0
1979-07-19 17:26:10.130 ,3,0,1.,24.0,0.,24.0,0.,24.0,0.,24.0
1979-07-19 17:26:34.130 ,4,1,0.,24.0,0.,24.0,0.,24.0,0.,24.0
1979-07-19 17:26:58.130 ,4,0,0.,24.0,1.,24.0,0.,24.0,0.,24.0
1979-07-19 17:27:22.130 ,5,1,0.,24.0,0.,24.0,0.,24.0,0.,24.0
1979-07-19 17:27:46.130 ,5,0,1.,24.0,0.,24.0,0.,24.0,0.,24.0
1979-07-19 17:28:10.130 ,6,1,0.,24.0,0.,24.0,0.,24.0,0.,24.0
1979-07-19 17:28:34.130 ,6,0,0.,24.0,0.,24.0,0.,24.0,0.,24.0
1979-07-19 17:28:58.130 ,7,1,6.,24.0,0.,24.0,0.,24.0,0.,24.0
1979-07-19 17:29:22.130 ,7,0,30.,24.0,0.,24.0,0.,24.0,0.,24.0
1979-07-19 17:29:46.130 ,7,1,24.,24.0,0.,24.0,0.,24.0,0.,24.0
1979-07-19 17:30:10.130 ,7,0,32.,24.0,0.,24.0,0.,24.0,0.,24.0
1979-07-19 17:30:34.130 ,6,1,20.,24.0,1.,24.0,0.,24.0,0.,24.0
1979-07-19 17:30:58.130 ,6,0,0.,24.0,0.,24.0,0.,24.0,0.,24.0
1979-07-19 17:31:22.130 ,5,1,0.,24.0,0.,24.0,0.,24.0,0.,24.0
1979-07-19 17:31:46.130 ,5,0,0.,24.0,0.,24.0,0.,24.0,0.,24.0
1979-07-19 17:32:10.130 ,4,1,1.,24.0,1.,24.0,0.,24.0,0.,24.0
1979-07-19 17:32:34.130 ,4,0,0.,24.0,0.,24.0,0.,24.0,0.,24.0
1979-07-19 17:32:58.130 ,3,1,0.,24.0,0.,24.0,0.,24.0,0.,24.0
1979-07-19 17:33:22.130 ,3,0,0.,24.0,0.,24.0,0.,24.0,0.,24.0
1979-07-19 17:33:46.130 ,2,1,1.,24.0,0.,24.0,0.,24.0,0.,24.0
1979-07-19 17:34:10.130 ,2,0,0.,24.0,0.,24.0,0.,24.0,0.,24.0
1979-07-19 17:34:34.130 ,1,1,0.,24.0,0.,24.0,0.,24.0,0.,24.0
1979-07-19 17:34:58.130 ,1,0,0.,24.0,0.,24.0,0.,24.0,0.,24.0
1979-07-19 17:35:22.130 ,0,1,1.,24.0,0.,24.0,0.,24.0,0.,24.0
1979-07-19 17:35:46.130 ,0,0,0.,24.0,0.,24.0,0.,24.0,0.,24.0
1979-07-19 17:36:10.130 ,0,1,0.,24.0,1.,24.0,0.,24.0,0.,24.0
1979-07-19 17:36:34.130 ,0,0,0.,24.0,0.,24.0,0.,24.0,0.,24.0
1979-07-19 17:36:58.130 ,1,1,1.,24.0,0.,24.0,0.,24.0,0.,24.0